TimeCST,TemperatureF,Dew PointF,Humidity,Sea Level PressureIn,VisibilityMPH,Wind Direction,Wind SpeedMPH,Gust SpeedMPH,PrecipitationIn,Events,Conditions,WindDirDegrees,DateUTC
12:53 AM,33.1,26.1,75,30.07,10.0,North,20.7,26.5,N/A,,Overcast,360,2014-03-08 06:53:00
1:18 AM,32.0,26.1,79,30.12,9.0,North,17.3,27.6,N/A,,Overcast,360,2014-03-08 07:18:00
1:23 AM,30.9,26.1,82,30.12,9.0,North,19.6,-,N/A,,Overcast,360,2014-03-08 07:23:00
1:53 AM,30.0,25.0,82,30.08,10.0,North,27.6,32.2,N/A,,Overcast,10,2014-03-08 07:53:00
2:25 AM,28.9,25.0,85,30.12,9.0,North,20.7,25.3,N/A,,Overcast,10,2014-03-08 08:25:00
2:40 AM,28.0,24.1,85,30.13,10.0,NNE,20.7,-,N/A,,Overcast,20,2014-03-08 08:40:00
2:50 AM,28.4,23.0,80,30.13,10.0,North,20.7,27.6,N/A,,Overcast,10,2014-03-08 08:50:00
2:53 AM,28.0,23.0,81,30.12,10.0,North,19.6,27.6,N/A,,Overcast,10,2014-03-08 08:53:00
3:13 AM,28.0,23.0,81,30.14,10.0,North,21.9,27.6,N/A,,Overcast,10,2014-03-08 09:13:00
3:35 AM,28.0,23.0,81,30.14,10.0,North,19.6,-,N/A,,Overcast,10,2014-03-08 09:35:00
3:53 AM,27.0,21.9,81,30.12,10.0,North,26.5,34.5,N/A,,Overcast,10,2014-03-08 09:53:00
4:07 AM,27.0,21.9,81,30.14,9.0,North,25.3,31.1,N/A,,Overcast,10,2014-03-08 10:07:00
4:53 AM,27.0,23.0,85,30.16,8.0,North,18.4,-,0.00,,Overcast,10,2014-03-08 10:53:00
5:53 AM,28.0,24.1,85,30.18,10.0,North,18.4,-,N/A,,Overcast,350,2014-03-08 11:53:00
6:05 AM,28.0,23.0,81,30.18,10.0,North,21.9,27.6,N/A,,Overcast,360,2014-03-08 12:05:00
6:15 AM,28.0,23.0,81,30.17,10.0,North,23.0,-,N/A,,Overcast,360,2014-03-08 12:15:00
6:25 AM,28.0,23.0,81,30.18,10.0,North,20.7,-,N/A,,Overcast,10,2014-03-08 12:25:00
6:53 AM,28.0,24.1,85,30.21,10.0,North,21.9,26.5,N/A,,Overcast,360,2014-03-08 12:53:00
7:53 AM,28.9,24.1,82,30.25,10.0,North,19.6,26.5,N/A,,Overcast,360,2014-03-08 13:53:00
8:53 AM,28.9,24.1,82,30.28,9.0,North,19.6,-,N/A,,Overcast,360,2014-03-08 14:53:00
9:28 AM,30.0,24.1,79,30.28,10.0,North,18.4,-,N/A,,Overcast,360,2014-03-08 15:28:00
9:53 AM,30.0,23.0,75,30.32,10.0,North,19.6,-,N/A,,Overcast,10,2014-03-08 15:53:00
10:53 AM,30.9,23.0,72,30.34,10.0,North,16.1,-,N/A,,Overcast,10,2014-03-08 16:53:00
11:53 AM,33.1,24.1,70,30.34,10.0,North,16.1,21.9,0.00,,Overcast,10,2014-03-08 17:53:00
12:53 PM,36.0,24.1,62,30.33,10.0,NNE,15.0,-,N/A,,Overcast,20,2014-03-08 18:53:00
1:53 PM,42.1,24.1,49,30.29,10.0,North,15.0,-,N/A,,Overcast,360,2014-03-08 19:53:00
2:53 PM,45.0,25.0,46,30.27,10.0,North,15.0,-,N/A,,Scattered Clouds,360,2014-03-08 20:53:00
3:53 PM,46.9,27.0,46,30.28,10.0,North,12.7,-,N/A,,Partly Cloudy,360,2014-03-08 21:53:00
4:53 PM,48.0,28.0,46,30.28,10.0,North,12.7,-,N/A,,Partly Cloudy,360,2014-03-08 22:53:00
5:53 PM,45.0,30.0,56,30.29,10.0,North,10.4,-,N/A,,Clear,360,2014-03-08 23:53:00
6:53 PM,42.1,30.0,62,30.31,10.0,North,6.9,-,N/A,,Clear,360,2014-03-09 00:53:00
7:53 PM,41.0,30.9,67,30.33,10.0,Calm,Calm,-,N/A,,Clear,0,2014-03-09 01:53:00
8:53 PM,39.0,30.9,73,30.35,10.0,NNW,3.5,-,N/A,,Clear,330,2014-03-09 02:53:00
9:53 PM,33.1,28.0,82,30.38,10.0,West,4.6,-,N/A,,Clear,270,2014-03-09 03:53:00
10:53 PM,30.0,26.1,85,30.38,10.0,Calm,Calm,-,N/A,,Clear,0,2014-03-09 04:53:00
11:53 PM,27.0,23.0,85,30.38,10.0,SW,4.6,-,N/A,,Clear,230,2014-03-09 05:53:00